Regional Weather Roundup
Issued by NWS

Home | Current Version | Previous Version | Graphics & Text | Print | Product List | Glossary On
Versions: 1 2 3 4 5 6 7 8 9 10 11 12 13 14 15 16 17 18 19 20 21 22 23 24 25 26 27 28 29 30 31 32 33 34 35 36 37 38 39 40 41 42 43 44 45 46 47 48 49 50
000
ASUS43 KMKX 190811
RWRWI

WISCONSIN REGIONAL WEATHER ROUNDUP
NATIONAL WEATHER SERVICE MILWAUKEE/SULLIVAN WI
300 AM CDT FRI SEP 19 2014

NOTE: "FAIR" INDICATES FEW OR NO CLOUDS BELOW 12,000 FEET WITH NO
SIGNIFICANT WEATHER AND/OR OBSTRUCTIONS TO VISIBILITY.

WIZ001-002-006>008-014>016-023>028-190900-
NORTHWEST WISCONSIN

CITY           SKY/WX    TMP DP  RH WIND       PRES   REMARKS
SUPERIOR ARPT  CLOUDY    45  45 100 CALM      29.95F FOG
ASHLAND        PTCLDY    53  50  89 S10       29.99F
HAYWARD        MOCLDY    54  51  90 S10       30.00F
SIREN          CLOUDY    57  54  88 S10       29.97F
RICE LAKE      MOCLDY    52  50  94 SE8       30.03F FOG
LADYSMITH      PTCLDY    52  50  94 SE7       30.06F
EAU CLAIRE     PTCLDY    54  51  90 S9        30.04F
MENOMONIE      PTSUNNY   52  52  98 SE8       30.03F FOG
NEW RICHMOND   MOCLDY    56  54  92 S9        30.00S
OSCEOLA        MOCLDY    56  56  99 SE8       30.01S
$$

WIZ003>005-009-010-017-018-190900-
NORTH CENTRAL WISCONSIN

CITY           SKY/WX    TMP DP  RH WIND       PRES   REMARKS
WOODRUFF       CLOUDY    52  50  93 S12G18    30.07F FOG
RHINELANDER    CLOUDY    49  48  97 S7        30.10F FOG
EAGLE RIVER    FOG       47  47 100 S5        30.09F VSB 3/4
LAND O LAKES   CLOUDY    49  48  97 S5        30.09F FOG
PHILLIPS       CLOUDY    51  49  95 S12       30.05F
TOMAHAWK       CLOUDY    48  47  97 S3        30.10F FOG
MEDFORD        CLOUDY    49  49  99 S12       30.08F FOG
MERRILL        FOG       50  50 100 SE6       30.11F VSB 3/4
$$

WIZ029-030-035-036-043>047-190900-
CENTRAL WISCONSIN

CITY           SKY/WX    TMP DP  RH WIND       PRES   REMARKS
WAUSAU         CLOUDY    51  50  96 SE7       30.11S FOG
MOSINEE        FOG       48  48 100 S8        30.13S VSB 1/2
MARSHFIELD     FOG       51  50  96 S8        30.10F VSB 1/2
STEVENS POINT  CLOUDY    49  48  99 S3        30.13S FOG
WAUPACA        FOG       47  46  95 W3        30.14S VSB 1
WAUTOMA        FOG       49  49 100 CALM      30.14F VSB<1/4
WISC RAPIDS    CLOUDY    51  50  96 S5        30.13S FOG
CAMP DOUGLAS   FOG       47  47 100 SE5       30.11S VSB 1/4
$$

WIZ011>013-019>022-031-037>040-048>050-190900-
NORTHEAST WISCONSIN

CITY           SKY/WX    TMP DP  RH WIND       PRES   REMARKS
ANTIGO         FOG       47  47 100 S9        30.13F VSB 1/4
STURGEON BAY   CLEAR     50  46  87 SE6       30.15S
GREEN BAY      CLEAR     43  42  97 CALM      30.14F
MANITOWOC      CLEAR     44  43  96 CALM      30.14F
APPLETON       CLEAR     50  48  93 S6        30.14S
CLINTONVILLE   CLEAR     43  41  93 CALM      30.13F FOG
OSHKOSH        PTCLDY    49  48  97 S10       30.13S FOG
$$

WIZ032>034-041-042-053>061-190900-
SOUTHWEST WISCONSIN

CITY           SKY/WX    TMP DP  RH WIND       PRES   REMARKS
LA CROSSE      PTCLDY    58  53  84 S10       30.07F
SPARTA         CLEAR     55  52  88 S7        30.10S
VIROQUA        FAIR      53  53 100 SE7       30.10S
BOSCOBEL       CLEAR     51  49  92 CALM      30.11F FOG
PRAIRIE DU CHI CLEAR     54  51  90 CALM      30.09F
PLATTEVILLE    FAIR      51  50  96 CALM      30.13S
$$

WIZ056-057-062-063-064-067-068-190900-
SOUTH CENTRAL WISCONSIN

CITY           SKY/WX    TMP DP  RH WIND       PRES   REMARKS
BARABOO/DELLS  CLEAR     49  47  94 CALM      30.12S FOG
LONE ROCK      CLEAR     53  48  83 E3        30.12S HAZE
WATERTOWN      CLOUDY    51  51 100 SE5       30.14S FOG
MADISON        CLOUDY    52  51  97 SE6       30.15R FOG
MIDDLETON      CLOUDY    52  52  99 SE3       30.15R
MONROE         FOG       52  52 100 E7        30.13S VSB 1/4
JANESVILLE     CLOUDY    54  52  94 SE7       30.13F FOG
$$

WIZ051-052-058>065-066-070>072-190900-
SOUTHEAST WISCONSIN

CITY           SKY/WX    TMP DP  RH WIND       PRES   REMARKS
MILWAUKEE      PTCLDY    52  50  93 CALM      30.15F
WAUKESHA       CLOUDY    50  50 100 SE3       30.16S FOG
MILWAUKEE/TIMM MOCLDY    48  46  93 CALM      30.16S
RACINE         CLEAR     58  56  93 SE8       30.16F
BURLINGTON     CLOUDY    49  49 100 CALM      30.14F FOG
KENOSHA        FOG       51  51 100 E3        30.15S VSB 1/4
FOND DU LAC    CLOUDY    51  50  96 S14       30.14F FOG
SHEBOYGAN      MOCLDY    43  42  97 SW3       30.15F
WEST BEND      FOG       45  43  93 CALM      30.15S VSB 3/4
JUNEAU         FOG       51  51  99 SE7       30.15F VSB 1/4
$$

LSZ147-162-190900-
LAKE SUPERIOR

STATION/POSITION TIME  TEMP    WIND        PRES    WAVE
                       AIR SEA DIR/SP/G            HT/PER
                 (UTC) (F)     (DEG/KT/KT) (MB)    (FT/S)
W MID LAKE BUOY  0750   51 48  190/ 10/ 10 1015.5F   1/ 4
DEVILS ISLAND    0800   52     180/  9/ 14 1015.0F
PORT WING        0700   44     150/  2/  2 1015.2F
SAXON HARBOR     0700   55     190/  6/ 13 1016.3F
$$

LMZ867-665-643>646-190900-
LAKE MICHIGAN

STATION/POSITION TIME  TEMP    WIND        PRES    WAVE
                       AIR SEA DIR/SP/G            HT/PER
                 (UTC) (F)     (DEG/KT/KT) (MB)    (FT/S)
N MID LAKE BUOY  0750   57 58  200/ 16/ 19 1020.8F   1/ 3
NORTHPORT PIER   0700   51     170/  4/  6 1021.0F
SISTER BAY       0742   50        CALM       N/A
KEWAUNEE LAKESHO 0700   45     300/  3/  3 1020.4F
SHEBOYGAN LAKESH 0800   50 49  210/  3/  4 1021.3F
PORT WASHINGTON  0740   50     280/  2/  3 1021.7F
ATWATER BUOY     0800   61     150/ 10/ 14 1021.7F
MILWAUKEE LAKESH 0700   60     130/  7/  8   N/A
S MID LAKE BUOY  0750   61 62  140/ 14/ 17 1021.4F   2/ 4
KENOSHA   LAKESH 0800   62     140/ 12/ 15 1020.3F
$$

TC  - TEMPERATURE IN CELSIUS
VSB - VISIBILITY IN STATUTE MILES
WCI - WIND CHILL INDEX
HX  - HEAT INDEX



USA.gov is the U.S. government's official web portal to all federal, state and local government web resources and services.